sat.trackr.live / text

‹ back to catalog

STARLINK-11378 [DTC]

NORAD 62020 · 2024-213N

PAYLOAD ACTIVE UNKNOWN

§ Identity

Operator
Country
US
Launch date
2024-11-18
Launch site
AFWTR
Launch vehicle
Mass (kg)
RCS (m²)

Purposes: comms

External: N2YO · Heavens-Above · Gunter

§ Orbital elements

Epoch: 2026-05-25T01:17:11.179104Z

Period
91.73 min
Inclination
53.1578°
Eccentricity
0.0001031
Mean motion
15.69747167 rev/d
Perigee alt
358.9 km
Apogee alt
360.3 km
Semi-major
6,737.8 km
B*
9.2499e-4
RAAN
24.4729°
Arg perigee
79.7234°
Mean anomaly
280.3900°
Rev number
8,691

§ Raw data

STARLINK-11378 [DTC]1 62020U 24213N   26145.05360161  .00113187  00000+0  92499-3 0  99982 62020  53.1578  24.4729 0001031  79.7234 280.3900 15.69747167 86915

JSON: /api/v1/satellites/62020 · /tle

For live sub-satellite position, see the globe view (requires WebGL).

§ Visibility from observer

Set your observer location to see the next 7 days of passes ≥ 10°. The values pass through the URL so the page stays shareable.

No JS? Fill the form by hand. The geolocation button needs JavaScript.